Volver al catálogo

KINEIS-2A

ActivoComunicacionesSSO
NORAD 62932·PAYLOAD·🇫🇷 France

Lanzado Feb 8, 2025 desde Rocket Lab Launch Complex 1

Loading…

Próximos Pases (próximas 24 horas)

TLE

ActualizadoSource: Space-Track

Época: Sep 14, 2026, 09:26 UTC

1 62932U 25028E   26257.39311088  .00000876  00000-0  14251-3 0  9991
2 62932  98.1217 312.9089 0003491 230.1866 129.9035 14.73566610 85749

Sigue KINEIS-2A en tiempo real con AllMySat

Download on the App Store